Location: B�rgermoos
(47.6500°N, 9.0667°E)
Time: 06:58:59
(UTC+00:00)

SR - Pass Details

Date: 06 August 2021
Orbit: 581 x 874 km, 66.7° (Epoch: 25 September)

Event Time Altitude Azimuth Distance (km) Brightness Sun altitude
Rises 03:01:00 0° 169° (S) 3,435 ? -10.3°
Reaches altitude 10° 03:04:07 10° 154° (SSE) 2,481 ? -9.9°
Maximum altitude 03:08:12 20° 108° (ESE) 1,819 ? -9.3°
Drops below altitude 10° 03:12:10 10° 62° (ENE) 2,392 ? -8.8°
Sets 03:15:05 0° 47° (NE) 3,276 ? -8.4°
